FW0527 Weather Reports


Display with metric or nautical units.
time (UTC)temp
F
wind
direction
speed
MPH
gust
MPH
rain 1hr
in
rain 24hr
in
rain mn
in
humidity
%
barometer
mb
20260508203031 83 313 1.0 15.0 0.00 0.00 0.00 22 1013.6
20260508201531 83 351 0.0 12.0 0.00 0.00 0.00 20 1013.8
20260508200037 83 325 0.0 14.0 0.00 0.00 0.00 23 1013.9
20260508194528 83 317 0.0 11.0 0.00 0.00 0.00 21 1013.9
20260508193035 83 360 2.0 18.0 0.00 0.00 0.00 17 1014.1
20260508191532 83 355 1.0 19.0 0.00 0.00 0.00 19 1014.1
20260508190044 82 324 2.0 14.0 0.00 0.00 0.00 19 1014.0
20260508184625 82 303 0.0 14.0 0.00 0.00 0.00 20 1014.1
20260508183033 82 305 0.0 9.0 0.00 0.00 0.00 19 1014.2
20260508181521 82 249 2.0 15.0 0.00 0.00 0.00 19 1014.3
20260508180020 82 265 2.0 15.0 0.00 0.00 0.00 20 1014.2
20260508174518 81 348 0.0 14.0 0.00 0.00 0.00 20 1014.1
20260508173016 80 309 0.0 13.0 0.00 0.00 0.00 21 1014.3
20260508171517 79 293 0.0 12.0 0.00 0.00 0.00 24 1014.2
20260508170011 79 315 1.0 12.0 0.00 0.00 0.00 26 1014.0
20260508164515 77 327 0.0 13.0 0.00 0.00 0.00 27 1014.1
20260508163004 76 305 0.0 11.0 0.00 0.00 0.00 29 1014.1
20260508161606 74 321 0.0 9.0 0.00 0.00 0.00 32 1014.1
20260508160054 70 333 0.0 2.0 0.00 0.00 0.00 36 1014.0
20260508154549 66 321 0.0 5.0 0.00 0.00 0.00 44 1014.0
20260508153053 60 293 0.0 0.0 0.00 0.00 0.00 54 1013.9
20260508151539 57 310 0.0 0.0 0.00 0.00 0.00 64 1014.0
20260508150035 56 96 0.0 0.0 0.00 0.00 0.00 76 1014.0
20260508144533 54 96 0.0 0.0 0.00 0.00 0.00 76 1014.0
20260508143027 53 96 0.0 0.0 0.00 0.00 0.00 75 1014.0
20260508141525 51 96 0.0 0.0 0.00 0.00 0.00 76 1014.0
20260508140025 50 321 0.0 0.0 0.00 0.00 0.00 76 1013.9
20260508134521 49 321 0.0 0.0 0.00 0.00 0.00 75 1013.7
20260508133020 49 321 0.0 0.0 0.00 0.00 0.00 76 1013.6
20260508131519 49 321 0.0 0.0 0.00 0.00 0.00 75 1013.6
20260508130030 49 321 0.0 0.0 0.00 0.00 0.00 74 1013.4
20260508124516 49 321 0.0 0.0 0.00 0.00 0.00 74 1013.1
20260508123017 49 321 0.0 0.0 0.00 0.00 0.00 74 1013.1
20260508121514 49 321 0.0 0.0 0.00 0.00 0.00 73 1013.1
20260508120012 49 321 0.0 0.0 0.00 0.00 0.00 72 1013.1
20260508114510 49 321 0.0 0.0 0.00 0.00 0.00 70 1013.2
20260508113009 50 321 0.0 0.0 0.00 0.00 0.00 71 1013.2
20260508111508 50 321 0.0 0.0 0.00 0.00 0.00 71 1013.2
20260508110005 50 321 0.0 0.0 0.00 0.00 0.00 70 1013.3
20260508104505 50 321 0.0 0.0 0.00 0.00 0.00 68 1013.4
20260508103005 50 321 0.0 0.0 0.00 0.00 0.00 68 1013.5
20260508101502 50 321 0.0 0.0 0.00 0.00 0.00 68 1013.6
20260508100100 51 321 0.0 0.0 0.00 0.00 0.00 68 1013.6
20260508094600 51 321 0.0 0.0 0.00 0.00 0.00 67 1013.6
20260508093106 51 321 0.0 0.0 0.00 0.00 0.00 67 1013.7
20260508091556 51 321 0.0 0.0 0.00 0.00 0.00 67 1013.9
20260508090100 51 321 0.0 0.0 0.00 0.00 0.00 66 1014.0
20260508084553 51 321 0.0 0.0 0.00 0.00 0.00 67 1014.2
20260508083051 51 321 0.0 0.0 0.00 0.00 0.00 67 1014.2
20260508081549 51 321 0.0 0.0 0.00 0.00 0.00 68 1014.5
20260508080047 51 321 0.0 0.0 0.00 0.00 0.00 68 1014.6
20260508074547 51 321 0.0 0.0 0.00 0.00 0.00 68 1014.8
20260508073045 51 321 0.0 0.0 0.00 0.00 0.00 68 1014.8
20260508071544 51 321 0.0 0.0 0.00 0.00 0.00 65 1015.0
20260508070040 51 321 0.0 0.0 0.00 0.00 0.00 66 1014.9
20260508064542 52 321 0.0 0.0 0.00 0.00 0.00 65 1015.0
20260508063056 52 321 0.0 0.0 0.00 0.00 0.00 64 1015.1
20260508061539 52 321 0.0 0.0 0.00 0.00 0.00 65 1015.1
20260508060038 53 321 0.0 0.0 0.00 0.00 0.00 63 1015.0
20260508054538 53 321 0.0 0.0 0.00 0.00 0.00 61 1014.9
20260508053038 53 321 0.0 0.0 0.00 0.00 0.00 62 1015.0
20260508051540 53 323 0.0 0.0 0.00 0.00 0.00 62 1015.0
20260508050039 54 323 0.0 0.0 0.00 0.00 0.00 62 1015.0
20260508044536 55 323 0.0 0.0 0.00 0.00 0.00 62 1014.9
20260508043052 55 323 0.0 0.0 0.00 0.00 0.00 60 1014.8
20260508041545 56 323 0.0 0.0 0.00 0.00 0.00 59 1014.6
20260508040038 58 323 0.0 0.0 0.00 0.00 0.00 58 1014.4
20260508034534 60 323 0.0 0.0 0.00 0.00 0.00 57 1014.3
20260508033033 62 323 0.0 0.0 0.00 0.00 0.00 57 1014.1
20260508031533 63 322 0.0 0.0 0.00 0.00 0.00 57 1014.0
20260508030039 64 322 0.0 0.0 0.00 0.00 0.00 55 1013.6
20260508024532 65 322 0.0 0.0 0.00 0.00 0.00 53 1013.6
20260508023031 66 304 0.0 0.0 0.00 0.00 0.00 54 1013.3
20260508021531 67 322 0.0 0.0 0.00 0.00 0.00 55 1013.3
20260508020038 67 304 0.0 0.0 0.00 0.00 0.00 56 1013.1
20260508014530 68 310 0.0 0.0 0.00 0.00 0.00 58 1013.1
20260508013029 69 329 0.0 5.0 0.00 0.00 0.00 54 1013.1
20260508011529 70 300 0.0 6.0 0.00 0.00 0.00 53 1013.1
20260508010033 71 293 0.0 0.0 0.00 0.00 0.00 50 1013.3
20260508004528 72 307 0.0 8.0 0.00 0.00 0.00 50 1013.1
20260508003028 73 278 0.0 2.0 0.00 0.00 0.00 51 1013.1
20260508001546 73 312 0.0 4.0 0.00 0.00 0.00 48 1013.1
20260508000025 74 303 0.0 10.0 0.00 0.00 0.00 47 1013.1
20260507234525 74 322 0.0 17.0 0.00 0.00 0.00 40 1013.0
20260507233023 75 303 0.0 13.0 0.00 0.00 0.00 41 1013.0
20260507231531 75 306 0.0 9.0 0.00 0.00 0.00 44 1013.2
20260507230025 75 319 0.0 8.0 0.00 0.00 0.00 44 1013.2
20260507224526 76 327 0.0 2.0 0.00 0.00 0.00 42 1013.2
20260507223017 76 282 0.0 4.0 0.00 0.00 0.00 39 1013.5
20260507221515 77 306 0.0 11.0 0.00 0.00 0.00 38 1013.4
20260507220021 78 296 1.0 14.0 0.00 0.00 0.00 36 1013.7
20260507214510 78 312 0.0 9.0 0.00 0.00 0.00 37 1013.9
20260507213010 79 254 0.0 14.0 0.00 0.00 0.00 35 1014.1
20260507211506 79 302 1.0 11.0 0.00 0.00 0.00 34 1014.3
20260507210103 80 311 0.0 10.0 0.00 0.00 0.00 34 1014.5
20260507204502 80 315 0.0 3.0 0.00 0.00 0.00 33 1014.8